This is the latest recevied weather packets stored in our database for station/object SQ9RHX-13. If no packets are shown the sender has not sent any weather packets the latest 10 day(s).
| Time | Temp. | Humidity | Pressure | Rain* | Wind** | Luminosity | Snow |
|---|---|---|---|---|---|---|---|
| 1777408803 | 2.22° C | 65% | 1029 hPa | 0 mm | - | 0 W/m² | - |
| 1777408503 | 2.22° C | 64% | 1028.8 hPa | 0 mm | - | 0 W/m² | - |
| 1777408202 | 2.78° C | 64% | 1029 hPa | 0 mm | - | 0 W/m² | - |
| 1777407903 | 2.78° C | 64% | 1028.8 hPa | 0 mm | - | 0 W/m² | - |
| 1777407604 | 2.78° C | 63% | 1028.9 hPa | 0 mm | - | 0 W/m² | - |
| 1777407304 | 3.33° C | 61% | 1029 hPa | 0 mm | - | 0 W/m² | - |
| 1777407003 | 3.33° C | 59% | 1029 hPa | 0 mm | - | 0 W/m² | - |
| 1777406703 | 3.89° C | 55% | 1029 hPa | 0 mm | - | 0 W/m² | - |
| 1777406404 | 3.89° C | 55% | 1028.8 hPa | 0 mm | - | 0 W/m² | - |
| 1777406103 | 4.44° C | 52% | 1029 hPa | 0 mm | - | 0 W/m² | - |
| 1777405803 | 5° C | 52% | 1029 hPa | 0 mm | - | 0 W/m² | - |
| 1777405503 | 5° C | 50% | 1028.9 hPa | 0 mm | - | 0 W/m² | - |
| 1777405203 | 5° C | 51% | 1029 hPa | 0 mm | - | 0 W/m² | - |
| 1777404902 | 5° C | 51% | 1028.7 hPa | 0 mm | - | 0 W/m² | - |
| 1777404606 | 5.56° C | 49% | 1028.9 hPa | 0 mm | - | 0 W/m² | - |
| 1777404303 | 6.11° C | 48% | 1028.7 hPa | 0 mm | - | 0 W/m² | - |
| 1777404004 | 6.67° C | 45% | 1028.6 hPa | 0 mm | - | 0 W/m² | - |
| 1777403703 | 7.22° C | 42% | 1028.6 hPa | 0 mm | - | 0 W/m² | - |
| 1777403404 | 7.78° C | 40% | 1028.6 hPa | 0 mm | - | 0 W/m² | - |
| 1777403104 | 8.33° C | 38% | 1028.7 hPa | 0 mm | - | 0 W/m² | - |
| 1777402804 | 8.33° C | 38% | 1028.6 hPa | 0 mm | - | 0 W/m² | - |
| 1777402503 | 8.33° C | 38% | 1028.6 hPa | 0 mm | - | 0 W/m² | - |
| 1777402203 | 8.89° C | 37% | 1028.5 hPa | 0 mm | - | 0 W/m² | - |
| 1777401907 | 8.89° C | 36% | 1028.5 hPa | 0 mm | - | 0 W/m² | - |
| 1777401604 | 9.44° C | 36% | 1028.5 hPa | 0 mm | - | 0 W/m² | - |
* Rain latest hour (hover to see other rain measurements)
** Current wind speed in m/s (hover to see current wind gust speed)